Location: Rometta
(44.2000°N, 10.0500°E)
Time: 11:35:00
(UTC+00:00)

Cosmos 1092 Rocket - Pass Details

Date: 20 January 2021
Orbit: 954 x 995 km, 83.0° (Epoch: 06 March)

Event Time Altitude Azimuth Distance (km) Brightness Sun altitude
Rises 18:36:13 0° 194° (SSW) 3,657 7.2 -25.3°
Reaches altitude 10° 18:38:44 10° 197° (SSW) 2,708 6.5 -25.7°
Maximum altitude 18:44:55 68° 280° (W) 1,036 4.2 -26.8°
Drops below altitude 10° 18:51:04 10° 3° (N) 2,702 6.3 -27.9°
Sets 18:53:36 0° 6° (N) 3,649 6.9 -28.4°
